Погода в Сааде

Йемен     16°56′18″N   43°45′42″E
темп.,
°C
ветер,
м/с
пор.,
м/с
влажн.,
%
обл.,
%
осадки,
мм/ч
давл.,
гПа
погр.,
м
27 ноября, сб
сб2700:00+14с12530 0.0 102011
03:00+13ссз11570 0.0 102010
06:00+12всв01610 0.0 102111
09:00+18в23400 0.0 1021695
12:00+22всв33300 0.0 10171696
15:00+24всв65267 0.0 10152458
18:00+20всв710361 0.0 1018267
21:00+16всв48420 0.0 1021184
28 ноября, вс
вс2800:00+14ссв22480 0.0 102114
03:00+13с22510 0.0 102014
06:00+11ссв22530 0.0 102213
09:00+17всв46350 0.0 1022836
12:00+22в66220 0.0 10181565
15:00+23всв65190 0.0 10162002
18:00+18всв710260 0.0 1018197
21:00+14всв34310 0.0 102152
29 ноября, пн
пн2900:00+12ссв22360 0.0 102112
03:00+11с22390 0.0 102112
06:00+10с22440 0.0 102312
09:00+16св56330 0.0 1023805
12:00+21всв66220 0.0 10191530
15:00+22всв54190 0.0 10161956
18:00+17всв710290 0.0 1019190
21:00+13всв47370 0.0 1022103
30 ноября, вт
вт3000:00+11св22440 0.0 102212
03:00+10с12500 0.0 102111
06:00+9ссв22540 0.0 102212
09:00+15св35380 0.0 1022810
12:00+20св45200 0.0 10181454
15:00+22св55161 0.0 10151779
18:00+16всв69261 0.0 1017144
21:00+13св36375 0.0 102084
1 декабря, ср
ср100:00+11ссв22438 0.0 102019
03:00+9с12483 0.0 101910
06:00+7с11535 0.0 102010
09:00+13св24304 0.0 1020701
12:00+19св44151 0.0 10161338
15:00+21всв44110 0.0 10131709
18:00+15всв59170 0.0 1016120
21:00+11св22240 0.0 101911